Notices

What's New in latest Release from April 7th, 2021:

- Updated Glossary, including Speed of Maximum Gust, and Total Hourly Precipitation

- Updated national and regional climate services offices contacts and prices information

- Addition of station inventory lists for 1981-2010, 1971-2000, and 1961-1990 Normals.

If you haven't already, please take our survey and provide feedback about our website: https://eccc.sondage-survey.ca/f/LanguageSelection.aspx?s=442ca660-fcf1-47c0-95a9-59707d6fd709

Hourly Data Report for November 24, 2019

VICTORIA UNIVERSITY CS
BRITISH COLUMBIA
Current Station Operator: ECCC - MSC

48°27'25.200" N
123°18'16.600" W
60.10 m
1018598
71783
WYJ

Download Data

Hourly Data (November 2019)
Hourly Data Report for November 24, 2019
TIME
LST
Temp Definition
°C
Dew Point Definition
°C
Rel Hum Definition
%
Precip. Amount Definition
mm

Wind Dir Definition
10's deg

Wind Spd Definition
km/h
Visibility Definition
km
Stn Press Definition
kPa
Hmdx Definition


Wind Chill Definition


Weather Definition


00:00 9.9 8.3 90 0.0 23 11   101.06     LegendNANA
01:00 9.0 7.1 88 0.0 25 8   101.20     LegendNANA
02:00 8.7 5.0 77 0.0 25 8   101.30     LegendNANA
03:00 7.7 5.9 88 0.0 25 7   101.36     LegendNANA
04:00 7.9 5.7 86 0.0 27 8   101.39     LegendNANA
05:00 7.5 5.7 89 0.0 26 8   101.43     LegendNANA
06:00 7.2 5.7 91 0.0 25 7   101.47     LegendNANA
07:00 6.8 5.8 93 0.0 26 7   101.54     LegendNANA
08:00 5.0 4.3 95 0.0 26 6   101.62     LegendNANA
09:00 7.4 5.7 89 0.0 25 7   101.67     LegendNANA
10:00 9.4 5.1 74 0.0 25 12   101.70     LegendNANA
11:00 10.5 5.7 72 0.2 26 11   101.73     LegendNANA
12:00 11.1 5.4 68 0.0 25 12   101.65     LegendNANA
13:00 11.2 5.1 66 0.0 25 14   101.64     LegendNANA
14:00 11.0 4.7 65 0.0 25 15   101.56     LegendNANA
15:00 10.2 4.3 66 0.0 25 13   101.53     LegendNANA
16:00 8.6 4.1 73 0.0 26 13   101.53     LegendNANA
17:00 7.9 4.2 78 0.0 26 10   101.48     LegendNANA
18:00 7.7 4.1 78 0.0 25 9   101.41     LegendNANA
19:00 7.7 4.8 82 0.0 25 7   101.41     LegendNANA
20:00 7.5 3.6 76 0.0 25 12   101.39     LegendNANA
21:00 6.4 5.4 93 0.0 24 10   101.37     LegendNANA
22:00 6.1 4.9 92 0.0 24 11   101.30     LegendNANA
23:00 5.4 3.9 90 0.0 25 5   101.29     LegendNANA

Notes on Data Quality.

Legend

  • E = Estimated
  • M = Missing
  • NA = Not Available*
  • [empty] = Indicates an unobserved value
Date modified: